Tracking 30743 objects as of 21-Jun-2025
HD Live streaming from Space Station
objects crossing your sky now

YZ-1 R/B

Track YZ-1 R/B now!


NORAD ID: 43625
Int'l Code: 2018-072D
Perigee: 22,143.5 km
Apogee: 22,746.4 km
Inclination: 56.1 °
Period: 811.4 minutes
Semi major axis: 28815 km
RCS: Unknown
Launch date: September 19, 2018
Source: People's Republic of China (PRC)
Launch site: Xichang Space Center, China (XSC)

Note: This is a ROCKET BODY
Your satellite tracking list
Your tracking list is empty




NASA's NSSDC Master Catalog

Two Line Element Set (TLE):
1 43625U 18072D   25170.18132606 -.00000027  00000-0  00000+0 0  9999
2 43625  56.1042  82.5791 0104611  59.5026 301.5351  1.77481806 43740
Source of the keplerian elements: AFSPC